Simultaneous Nadir Overpasses (SNOs) Predictions

Prediction of SNOs between NOAA-19 and TERRA Satellite Orbit:

Table of predicted SNOs for the next 14.0 days since TLE Epoch: 6/6/2020
Index Date (NOAA-19) Time (NOAA-19) Lat,Lon (NOAA-19) SZA (NOAA-19 ) Date (TERRA) Time (TERRA) Lat,Lon (TERRA) SZA (TERRA ) Distance(km) Time Diff (sec)
1 06/06/2020 03:10:50 79.48, 160.32 58.12 06/06/2020 03:11:34 79.48, 160.34 58.14 0.49 44
2 06/06/2020 04:01:47 -79.46, -32.20 121.89 06/06/2020 04:01:02 -79.44, -32.29 121.93 2.53 45
3 06/08/2020 08:44:06 -79.49,-103.01 122.10 06/08/2020 08:45:19 -79.49,-103.06 122.08 1.16 73
4 06/08/2020 09:35:07 79.46, 64.58 57.91 06/08/2020 09:34:45 79.49, 64.60 57.93 3.77 22
5 06/10/2020 15:08:24 -79.48, 161.12 122.28 06/10/2020 15:08:31 -79.48, 161.10 122.27 0.31 7
6 06/12/2020 20:41:43 79.49,-102.21 57.59 06/12/2020 20:42:16 79.50,-102.25 57.60 1.08 33
7 06/12/2020 21:32:42 -79.47, 65.23 122.42 06/12/2020 21:31:44 -79.46, 65.17 122.45 1.43 58
8 06/15/2020 02:15:01 -79.51, -5.63 122.53 06/15/2020 02:16:03 -79.50, -5.67 122.52 1.30 62
9 06/15/2020 03:06:00 79.47, 161.99 57.48 06/15/2020 03:05:29 79.50, 161.95 57.48 2.89 31
10 06/17/2020 08:39:19 -79.50,-101.55 122.60 06/17/2020 08:39:17 -79.49,-101.55 122.62 1.56 2
11 06/19/2020 14:12:36 79.51, -4.89 57.36 06/19/2020 14:13:03 79.52, -4.75 57.39 3.00 27




NCC Satellite Simultaneous Nadir Overpasses (SNOs) Prediction Service
